Regional Weather Roundup
Issued by NWS

Home | Current Version | Previous Version | Graphics & Text | Print | Product List | Glossary On
Versions: 1 2 3 4 5 6 7 8 9 10 11 12 13 14 15 16 17 18 19 20 21 22 23 24 25 26 27 28 29 30 31 32 33 34 35 36 37 38 39 40 41 42 43 44 45 46 47 48 49 50
000
ASUS43 KLSX 151107
RWRMO

WEATHER SUMMARY FOR MISSOURI
NATIONAL WEATHER SERVICE SPRINGFIELD MO
600 AM CDT TUE APR 15 2014

NOTE: "FAIR" INDICATES FEW OR NO CLOUDS BELOW 12,000 FEET WITH NO
       SIGNIFICANT WEATHER AND/OR OBSTRUCTIONS TO VISIBILITY.
       CURRENT SKY AND/OR WEATHER CONDITIONS ARE NOT AVAILABLE FOR
       CHILLICOTHE AND FARMINGTON.

MOZ001>031-035>038-043-044-053-054-151200-
...NORTHERN AND WESTERN MISSOURI...

CITY           SKY/WX    TMP DP  RH WIND       PRES   REMARKS
KANSAS CTY INT CLEAR     31  23  72 CALM      30.18F
KANSAS C DTWN  CLEAR     32  27  81 CALM      30.20R
LEE`S SUMMIT   CLEAR     32  24  72 CALM      30.19S
ST JOSEPH      CLEAR     27  24  89 CALM      30.20S
CHILLICOTHE      N/A     24  20  84 CALM      30.20S
KIRKSVILLE     CLEAR     22  17  81 W6        30.17R WCI  14

$$
MOZ066>068-077>081-088>096-101>105-151200-
...SOUTHWEST MISSOURI...

CITY           SKY/WX    TMP DP  RH WIND       PRES   REMARKS
SPRINGFIELD    PTCLDY    27  20  75 CALM      30.18R
JOPLIN         CLEAR     26  22  84 S3        30.21S

$$
MOZ032>034-039>042-045>050-055>058-069>072-151200-
...CENTRAL MISSOURI...

CITY           SKY/WX    TMP DP  RH WIND       PRES   REMARKS
COLUMBIA       CLEAR     27  22  81 NW3       30.18R
JEFFERSON CITY CLEAR     29  24  82 CALM      30.20R
ROLLA          CLEAR     26  22  84 NW5       30.15R WCI  20
SEDALIA        CLEAR     31  23  72 W6        30.20R WCI  25
WHITEMAN AFB   CLEAR     29  21  74 W1        30.20R
OSAGE BEACH    CLEAR     28  21  74 N5        30.20R WCI  23

$$
MOZ051-052-059>065-151200-
...EAST CENTRAL MISSOURI...

CITY           SKY/WX    TMP DP  RH WIND       PRES   REMARKS
ST LOUIS INTL  CLEAR     32  22  66 NW8       30.15R WCI  25
SPIRIT OF STL  CLEAR     30  21  69 NW7       30.16R WCI  23
ST CHARLES     CLEAR     32  20  61 NW12      30.15R WCI  23

$$
MOZ072>076-082>087-097>100-106>115-151200-
...SOUTH CENTRAL AND SOUTHEAST MISSOURI...

CITY           SKY/WX    TMP DP  RH WIND       PRES   REMARKS
CAPE GIRARDEAU CLEAR     32  25  75 NW7       30.13R WCI  26
FARMINGTON     CLEAR     28  21  74 NW10      30.14R WCI  19
POPLAR BLUFF   CLEAR     33  22  63 MISG      30.15R
WEST PLAINS    CLEAR     28  20  71 NW3       30.16R

$$



USA.gov is the U.S. government's official web portal to all federal, state and local government web resources and services.